Houston / Southwest Airport, TX

10:49 AM CDT on May 26, 2017 (GMT -0500)
Houston-Southwest

Weather History for KAXH - November, 2012

Change the Weather History Date:

Monday, November 19, 2012

  Actual Average (KHOU) Record (KHOU)
Temperature  
Mean Temperature 58 °F -  
Max Temperature 75 °F 69 °F 85 °F (1985)
Min Temperature 42 °F 51 °F 30 °F (2014)
Degree Days  
Heating Degree Days 6    
Growing Degree Days 8 (Base 50)    
Moisture  
Dew Point 48 °F    
Average Humidity 73    
Maximum Humidity 99    
Minimum Humidity 29    
Precipitation  
Precipitation 0.00 in - - ()
Sea Level Pressure  
Sea Level Pressure 30.22 in    
Wind  
Wind Speed 1 mph (ESE)    
Max Wind Speed 9 mph    
Max Gust Speed -    
Visibility 8 miles    
Events Fog    
Averages and records for this station are not official NWS values.
T = Trace of Precipitation, MM = Missing Value Source: NWS Daily Summary

Daily Weather History Graph

Daily Weather History Graph

Search for Another Location

Airport or City:

Trip Planner

Search our weather history database for the weather conditions in past years. The results will help you decide how hot, cold, wet, or windy it might be!

Date:

Astronomy

Nov. 19, 2012 Rise Set
Actual Time 6:49 AM CST 5:24 PM CST
Civil Twilight 6:24 AM CST 5:50 PM CST
Nautical Twilight 5:55 AM CST 6:19 PM CST
Astronomical Twilight 5:27 AM CST 6:47 PM CST
Moon 12:03 PM CST (11/19) 11:40 PM CST (11/19)
Length of Visible Light 11h 25m
Length of Day
10h 35m
Waxing Crescent, 41% of the Moon is Illuminated
Nov 19
Waxing Crescent
Nov 20
First Quarter
Nov 28
Full
Dec 6
Last Quarter
Dec 13
New

Hourly Weather History & Observations

Time (CST) Temp. Dew Point Humidity Pressure Visibility Wind Dir Wind Speed Gust Speed Precip Events Conditions
12:15 AM 47.7 °F 46.0 °F 94% 30.25 in 10.0 mi East 3.5 mph - N/A   Clear
12:35 AM 51.1 °F 44.2 °F 77% 30.25 in 10.0 mi Calm Calm - N/A   Clear
12:55 AM 48.6 °F 44.2 °F 85% 30.25 in 10.0 mi Calm Calm - N/A   Clear
1:15 AM 48.7 °F 45.0 °F 87% 30.26 in 10.0 mi WNW 3.5 mph - N/A   Clear
1:35 AM 47.3 °F 44.2 °F 89% 30.26 in 10.0 mi Calm Calm - N/A   Clear
1:55 AM 46.2 °F 44.1 °F 92% 30.26 in 10.0 mi Calm Calm - N/A   Clear
2:15 AM 48.2 °F 45.7 °F 91% 30.25 in 10.0 mi Calm Calm - N/A   Clear
2:35 AM 48.0 °F 46.0 °F 93% 30.25 in 10.0 mi Calm Calm - N/A   Clear
2:55 AM 46.9 °F 45.0 °F 93% 30.25 in 10.0 mi Calm Calm - N/A   Clear
3:15 AM 46.4 °F 44.8 °F 94% 30.25 in 10.0 mi Calm Calm - N/A   Clear
3:35 AM 46.4 °F 44.8 °F 94% 30.24 in 10.0 mi Calm Calm - N/A   Clear
3:55 AM 45.0 °F 43.3 °F 94% 30.25 in 10.0 mi Calm Calm - N/A   Clear
4:15 AM 45.7 °F 44.4 °F 95% 30.24 in 10.0 mi Calm Calm - N/A   Clear
4:35 AM 45.9 °F 43.9 °F 93% 30.24 in 10.0 mi Calm Calm - N/A   Clear
4:55 AM 44.2 °F 42.6 °F 94% 30.25 in 10.0 mi Calm Calm - N/A   Clear
5:15 AM 44.6 °F 43.5 °F 96% 30.23 in 7.0 mi Calm Calm - N/A   Clear
5:35 AM 42.4 °F 41.4 °F 96% 30.24 in 5.0 mi Calm Calm - N/A   Clear
5:55 AM 45.3 °F 44.4 °F 97% 30.24 in 10.0 mi Calm Calm - N/A   Clear
6:15 AM 44.8 °F 43.7 °F 96% 30.25 in 7.0 mi Calm Calm - N/A   Clear
6:35 AM 44.8 °F 43.7 °F 96% 30.25 in 7.0 mi Calm Calm - N/A   Clear
6:55 AM 45.1 °F 44.1 °F 96% 30.24 in 5.0 mi Calm Calm - N/A   Clear
7:35 AM 47.5 °F 45.9 °F 94% 30.25 in 7.0 mi Calm Calm - N/A   Clear
7:55 AM 54.3 °F 51.8 °F 91% 30.26 in 7.0 mi Calm Calm - N/A   Clear
8:15 AM 57.4 °F 51.8 °F 82% 30.27 in 10.0 mi Calm Calm - N/A   Clear
8:35 AM 60.1 °F 52.0 °F 75% 30.27 in 10.0 mi East 4.6 mph - N/A   Clear
8:55 AM 62.2 °F 52.0 °F 69% 30.27 in 10.0 mi East 4.6 mph - N/A   Clear
9:15 AM 64.4 °F 52.2 °F 64% 30.28 in 10.0 mi ENE 3.5 mph - N/A   Clear
9:35 AM 66.2 °F 52.5 °F 61% 30.28 in 10.0 mi East 3.5 mph - N/A   Clear
9:55 AM 67.8 °F 52.0 °F 57% 30.28 in 10.0 mi Calm Calm - N/A   Clear
10:15 AM 68.5 °F 51.4 °F 54% 30.28 in 10.0 mi SSE 3.5 mph - N/A   Scattered Clouds
10:35 AM 68.9 °F 51.8 °F 54% 30.28 in 10.0 mi Calm Calm - N/A   Clear
10:55 AM 70.3 °F 49.1 °F 47% 30.28 in 10.0 mi Calm Calm - N/A   Clear
11:15 AM 71.8 °F 46.0 °F 40% 30.27 in 10.0 mi Calm Calm - N/A   Scattered Clouds
11:35 AM 72.7 °F 46.0 °F 39% 30.26 in 10.0 mi WNW 3.5 mph - N/A   Scattered Clouds
11:55 AM 73.4 °F 44.2 °F 35% 30.25 in 10.0 mi NNE 3.5 mph - N/A   Clear
12:15 PM 73.4 °F 43.5 °F 34% 30.24 in 7.0 mi Calm Calm - N/A   Clear
12:35 PM 74.3 °F 42.3 °F 32% 30.23 in 10.0 mi Calm Calm - N/A   Clear
12:55 PM 74.1 °F 41.2 °F 31% 30.22 in 10.0 mi SE 4.6 mph - N/A   Clear
1:15 PM 75.6 °F 41.9 °F 30% 30.20 in 10.0 mi Calm Calm - N/A   Clear
1:35 PM 75.0 °F 42.1 °F 31% 30.19 in 10.0 mi Calm Calm - N/A   Clear
1:55 PM 75.4 °F 41.7 °F 30% 30.19 in 10.0 mi Calm Calm - N/A   Clear
2:15 PM 75.9 °F 42.3 °F 30% 30.18 in 10.0 mi Calm Calm - N/A   Clear
2:35 PM 75.9 °F 42.6 °F 30% 30.17 in 10.0 mi SSW 3.5 mph - N/A   Clear
2:55 PM 75.6 °F 41.4 °F 29% 30.17 in 10.0 mi Calm Calm - N/A   Clear
3:15 PM 74.7 °F 40.8 °F 30% 30.16 in 10.0 mi Calm Calm - N/A   Clear
3:55 PM 74.7 °F 41.4 °F 30% 30.16 in 10.0 mi SSW 3.5 mph - N/A   Clear
4:15 PM 74.3 °F 39.9 °F 29% 30.16 in 10.0 mi Calm Calm - N/A   Clear
4:35 PM 73.4 °F 41.2 °F 31% 30.16 in 10.0 mi Calm Calm - N/A   Clear
4:55 PM 70.2 °F 53.6 °F 56% 30.16 in 10.0 mi SE 9.2 mph - N/A   Clear
5:15 PM 67.6 °F 54.5 °F 63% 30.17 in 10.0 mi SE 6.9 mph - N/A   Clear
5:35 PM 66.0 °F 54.9 °F 67% 30.18 in 10.0 mi SE 5.8 mph - N/A   Clear
5:55 PM 64.4 °F 55.2 °F 72% 30.18 in 10.0 mi SE 4.6 mph - N/A   Clear
6:15 PM 63.0 °F 55.0 °F 75% 30.19 in 10.0 mi SE 3.5 mph - N/A   Clear
6:35 PM 61.7 °F 54.9 °F 78% 30.19 in 10.0 mi Calm Calm - N/A   Clear
6:55 PM 59.2 °F 54.0 °F 83% 30.20 in 10.0 mi Calm Calm - N/A   Clear
7:15 PM 58.3 °F 53.6 °F 84% 30.20 in 10.0 mi SE 3.5 mph - N/A   Clear
7:35 PM 57.9 °F 53.6 °F 86% 30.21 in 10.0 mi Calm Calm - N/A   Clear
7:55 PM 56.7 °F 54.1 °F 91% 30.21 in 10.0 mi Calm Calm - N/A   Clear
8:15 PM 56.1 °F 54.3 °F 94% 30.21 in 10.0 mi Calm Calm - N/A   Clear
8:35 PM 56.3 °F 55.2 °F 96% 30.21 in 7.0 mi Calm Calm - N/A   Clear
9:15 PM 56.3 °F 55.6 °F 97% 30.20 in 2.0 mi Calm Calm - N/A   Clear
9:35 PM 55.8 °F 55.2 °F 98% 30.20 in 0.2 mi Calm Calm - N/A Fog Fog
9:55 PM 52.7 °F 52.2 °F 98% 30.20 in 0.2 mi Calm Calm - N/A Fog Fog
10:15 PM 52.2 °F 51.8 °F 99% 30.20 in 5.0 mi Calm Calm - N/A   Overcast
10:35 PM 52.7 °F 52.2 °F 98% 30.20 in 5.0 mi Calm Calm - N/A   Mostly Cloudy
10:55 PM 52.9 °F 52.3 °F 98% 30.20 in 0.8 mi Calm Calm - N/A   Overcast
11:15 PM 52.3 °F 51.8 °F 98% 30.20 in 1.5 mi Calm Calm - N/A   Mostly Cloudy
11:35 PM 50.7 °F 50.4 °F 99% 30.20 in 0.2 mi Calm Calm - N/A Fog Fog
11:55 PM 50.0 °F 49.6 °F 99% 30.19 in 0.2 mi Calm Calm - N/A Fog Fog